(354) Eleonora
ephemeris date magn radius delta ra dec elong phase
Opposition19 May 202510.32.767 AU1.833 AU16h11m+07°27'151.9°9.9°
Today19 Jul 202511.22.836 AU2.262 AU15h42m+02°34'114.3°19.1°
(354) Eleonora - 2025-07-19
astro.vanbuitenen.nl


 
-1 year
-1 month
-1 day
Now
+1 day
+1 month
+1 year

The interactive orbit chart above shows the body's path through the solar system and its position at the given date. Green and blue lines are shown perpendicular to the ecliptic plane: Green if the path is above the ecliptic plane, blue if it is below. (Left-click and drag to rotate the view; Right-click and drag to move the view; Use scroll wheel to zoom in our out.)

The orbital elements of Eleonora are:

            e (Eccentricity)                : 0.1117701
            a (Semimajor axis)              : 2.8004273
            i (Inclination)                 : 18.36042
            Ω (Longitude of ascending node) : 140.21125
            ω (Argument of perihelion)      : 8.06410
            M (Mean anomaly)                : 74.41705
            Epoch                           : 2025 May 05

            L (Longitude of perihelion)     : 147.86984
            B (Latitude of perihelion)      : 2.53259
            P (Orbital period in years)     : 4.69            
        

The light curve chart below shows the estimated development of the minor planet's magnitude.


The all-sky chart below shows the path of the minor planet over the same period as the light curve. The current position is marked yellow.





The following chart shows the path of the minor planet in the next few days. The field of view is optimized for (~10x50) binoculars and finderscopes. A more printer-friendly version of the same chart can be found below.




Ephemerides:
Date       Time       RA (2000)    DEC (2000)    delta   radius  elong  phase   PA    magn
2025-07-19 00:00 UT   15 42 08.2   +02 34 15     2.262    2.836  114.3   19.1   114   11.2 
2025-07-19 01:45 UT   15 42 08.7   +02 33 35     2.263    2.836  114.3   19.1   114   11.2 
2025-07-20 00:00 UT   15 42 15.2   +02 25 03     2.274    2.837  113.5   19.2   114   11.2 
2025-07-21 00:00 UT   15 42 23.5   +02 15 47     2.286    2.838  112.7   19.3   113   11.2 
2025-07-22 00:00 UT   15 42 33.0   +02 06 28     2.299    2.840  112.0   19.4   113   11.2 
2025-07-23 00:00 UT   15 42 43.9   +01 57 06     2.311    2.841  111.2   19.5   112   11.2 
2025-07-24 00:00 UT   15 42 56.0   +01 47 42     2.323    2.842  110.4   19.6   112   11.2 
2025-07-25 00:00 UT   15 43 09.4   +01 38 15     2.336    2.843  109.6   19.7   112   11.3 
2025-07-26 00:00 UT   15 43 24.1   +01 28 45     2.348    2.844  108.9   19.8   111   11.3 
2025-07-27 00:00 UT   15 43 40.0   +01 19 13     2.361    2.845  108.1   19.8   111   11.3 
2025-07-28 00:00 UT   15 43 57.2   +01 09 40     2.374    2.846  107.3   19.9   110   11.3 
2025-07-29 00:00 UT   15 44 15.6   +01 00 04     2.386    2.847  106.6   20.0   110   11.3 
2025-07-30 00:00 UT   15 44 35.2   +00 50 27     2.399    2.848  105.8   20.1   110   11.3 
2025-07-31 00:00 UT   15 44 56.1   +00 40 49     2.412    2.850  105.0   20.1   109   11.3 
2025-08-01 00:00 UT   15 45 18.1   +00 31 09     2.425    2.851  104.3   20.2   109   11.4 
2025-08-02 00:00 UT   15 45 41.4   +00 21 28     2.438    2.852  103.5   20.2   108   11.4 
2025-08-03 00:00 UT   15 46 05.8   +00 11 47     2.451    2.853  102.8   20.3   108   11.4 
2025-08-04 00:00 UT   15 46 31.4   +00 02 05     2.464    2.854  102.0   20.3   108   11.4 
2025-08-05 00:00 UT   15 46 58.1   +00 07 38     2.478    2.855  101.3   20.4   107   11.4 
2025-08-06 00:00 UT   15 47 25.9   +00 17 22     2.491    2.856  100.6   20.4   107   11.4 
2025-08-07 00:00 UT   15 47 54.9   +00 27 05     2.504    2.857   99.8   20.5   107   11.4 
2025-08-08 00:00 UT   15 48 25.0   +00 36 49     2.517    2.858   99.1   20.5   106   11.5 
2025-08-09 00:00 UT   15 48 56.1   +00 46 32     2.531    2.860   98.3   20.5   106   11.5 
2025-08-10 00:00 UT   15 49 28.4   +00 56 16     2.544    2.861   97.6   20.6   106   11.5 
2025-08-11 00:00 UT   15 50 01.7   -01 05 59     2.558    2.862   96.9   20.6   105   11.5 
2025-08-12 00:00 UT   15 50 36.1   -01 15 42     2.571    2.863   96.1   20.6   105   11.5 
2025-08-13 00:00 UT   15 51 11.5   -01 25 24     2.585    2.864   95.4   20.6   105   11.5 
2025-08-14 00:00 UT   15 51 47.9   -01 35 06     2.598    2.865   94.7   20.6   104   11.5 
2025-08-15 00:00 UT   15 52 25.4   -01 44 47     2.612    2.866   94.0   20.6   104   11.6 
2025-08-16 00:00 UT   15 53 03.9   -01 54 28     2.626    2.867   93.3   20.6   104   11.6 
2025-08-17 00:00 UT   15 53 43.3   -02 04 07     2.639    2.868   92.5   20.6   103   11.6 
2025-08-18 00:00 UT   15 54 23.8   -02 13 45     2.653    2.869   91.8   20.6   103   11.6 


    Terminology:
            
    delta:  distance between minor planet and earth in AU
    radius: distance between minor planet and sun in AU
    magn:   magnitude (brightness) estimate    
    ra:     right ascension in hours (24h = 360deg)
    dec:    declination in degrees
    elong:  elongation in degrees (angle sun-earth-minor planet)    
    phase:  phase angle in degrees (angle sun-minor planet-earth)        
    AU:     Astronomical Unit (mean distance between earth and sun: 149597870.7 km
    

Orbital elements provided by the MPC (Minor Planet Center).
Calculations by a modified version of AAPlus, a C# implementation of the AA+ project by PJ Naughter from the algorithms presented in the book "Astronomical Algorithms" by Jean Meeus.
NGC2000 dso catalog and star labels from VizieR as provided by the Strasbourg astronomical Data Center.
Tycho2 catalog from the ESO archive.